Погода в Красном Роге

Россия / Брянская область     53°00′16″N   33°44′32″E
темп.,
°C
ветер,
м/с
пор.,
м/с
влажн.,
%
обл.,
%
осадки,
мм/ч
давл.,
гПа
погр.,
м
20 мая, пт
пт2000:00+9зсз4128577 0.0 1017257
03:00+8сз410876 0.0 1017213
06:00+8ссв378913 0.1 1018236
09:00+13св1269100 0.1 1018714
12:00+15с2358100 0.0 10171257
15:00+16с2256100 0.0 10161296
18:00+13св2473100 0.1 1016149
21:00+10вюв3587100 1.3 1015112
21 мая, сб
сб2100:00+9вюв2594100 0.9 1013203
03:00+8вюв61196100 5.9 1011604
06:00+8вюв61395100 5.9 1009702
09:00+9вюв61393100 6.0 1008743
12:00+8вюв51195100 0.7 1008716
15:00+9вюв51094100 1.2 1007670
18:00+8юв51197100 1.1 1005517
21:00+8вюв5998100 4.1 1003440
22 мая, вс
вс2200:00+8вюв61298100 1.6 998508
03:00+10зюз41098100 2.6 994523
06:00+7зсз5898100 0.4 995562
09:00+6с71195100 0.9 995774
12:00+5св101595100 0.6 998914
15:00+7св7149279 0.8 10021173
18:00+9св5108284 0.4 1004840
21:00+6с338560 0.6 100631
23 мая, пн
пн2300:00+4с358847 0.0 100880
03:00+3с358633 0.0 100981
06:00+3с23835 0.0 101074
09:00+10сз346075 0.0 1010557
12:00+13ссз4644100 0.1 10092382
15:00+14ссз4642100 0.1 10092247
18:00+13ссз46545 0.0 10091682
21:00+7сз35740 0.0 101178
24 мая, вт
вт2400:00+5сз37754 0.0 1012107
03:00+3сз358742 0.0 101386
06:00+4ссз367531 0.0 1014133
09:00+11с355316 0.0 1014458
12:00+14ссз45405 0.0 10141337
15:00+16ссз464722 0.0 10151879
18:00+14сз3668100 0.0 1015199
21:00+11зсз36765 0.0 101796